User: anonymous   Login
Location: Whispering Pines Observatory
(39.4020°N, 104.7430°W)
Time: 17:13:17
(UTC-07:00)
Language:

MOS 1 Rocket - Orbit

View from above orbital plane
View from above orbital plane
View from above satellite
View from above satellite

Ground track
Ground track

The orbit data is extracted from the following two-line orbital elements,

1 17528U 87018B   15062.59803127  .00000790  00000-0  18314-3 0  9992
2 17528 097.4295 107.1697 0154119 041.0128 110.6228 14.50320099478595
Epoch (UTC): 03 March 2015 14:21:09
Eccentricity: 0.0154119
inclination: 97.4295°
perigee height: 615 km
apogee height: 834 km
right ascension of ascending node: 107.1697°
argument of perigee: 41.0128°
revolutions per day: 14.50320099
mean anomaly at epoch: 110.6228°
orbit number at epoch: 47859

The dashed part of the orbit path shows where the satellite is in the earth's shadow,  

DLR